RH
10 8 7 7 10 10 12 16 18 23 27 40 41 61 55 51 46 40 29 15 11 14 15 12 11 9 6 4 4 3 3 3 3 3 3 4 4 5 9 8 13 57 62 78 97 50 46 43 45
15 14 12 10 10 10 11 14 25 29 36 42 46 48 55 47 43 39 28 18 11 12 12 11 11 10 7 4 4 4 3 3 3 3 3 4 4 5 6 6 12 43 46 82 99 95 56 50 50
15 15 13 10 8 9 8 10 23 30 34 35 56 63 49 50 44 36 25 13 11 14 10 12 11 8 10 6 5 4 4 4 5 5 5 5 5 6 5 8 21 23 53 88 95 97 91 70 35
24 18 12 8 7 9 10 12 29 36 37 30 30 57 58 54 48 42 35 15 13 16 11 10 13 8 8 9 7 6 5 5 5 6 6 6 6 6 4 10 20 26 63 94 96 96 96 92 38
18 20 19 14 12 15 18 16 24 35 40 39 31 49 50 41 40 36 24 14 15 17 11 8 13 10 7 6 6 5 6 6 6 6 7 7 7 6 5 6 21 41 64 76 74 83 94 95 79
20 19 16 17 21 22 24 26 16 34 33 38 38 36 40 27 28 31 20 15 14 15 10 6 11 10 7 6 6 6 6 6 6 6 8 9 9 8 6 6 13 37 44 47 72 96 81 99 94
23 20 17 17 17 20 36 36 26 17 24 29 49 55 41 21 28 23 17 17 16 14 10 6 9 8 7 7 7 8 7 8 7 8 10 10 10 10 8 5 10 20 26 44 52 90 89 96 89
15 12 8 14 19 18 43 44 38 28 19 30 45 56 47 30 18 19 17 17 16 16 13 6 8 7 6 6 6 6 6 8 9 10 11 10 10 10 10 7 8 29 39 44 60 62 71 87 93
6 4 4 8 19 16 45 50 46 38 29 21 28 43 45 47 10 17 22 14 14 20 12 9 6 6 6 6 5 5 5 5 9 11 12 13 13 12 12 10 14 27 49 52 56 72 78 84 95
6 5 5 8 10 10 22 48 60 48 38 29 32 28 44 38 21 16 17 18 16 20 17 14 10 8 8 7 8 6 5 5 6 8 12 14 15 15 14 11 12 34 49 54 69 72 90 81 87
6 5 6 5 6 8 9 19 66 59 47 40 34 33 27 44 26 17 18 17 23 20 21 19 16 13 12 11 10 10 8 6 5 6 9 13 16 18 16 13 10 27 47 51 56 63 79 84 78
6 6 5 4 4 5 5 7 34 73 56 52 44 51 43 42 28 20 15 19 22 20 18 18 18 17 16 14 14 13 12 10 7 7 7 10 15 18 19 15 12 31 48 51 48 52 75 91 74
6 6 5 5 5 5 7 7 10 32 69 61 54 65 54 48 38 21 12 17 19 22 21 22 22 20 20 20 18 16 14 15 12 8 7 7 14 20 23 20 10 34 43 44 50 66 82 82 71
7 6 5 4 5 6 8 5 7 3 47 94 74 70 71 57 45 38 23 15 17 31 29 25 27 26 24 24 22 19 18 17 16 12 8 7 10 18 25 24 14 20 51 46 48 72 85 78 80
8 7 6 5 6 5 10 5 4 5 27 71 96 94 94 80 67 48 41 25 19 25 30 32 31 35 30 27 25 22 20 20 19 16 10 8 8 17 26 31 24 9 34 55 54 52 73 91 87
9 8 6 6 7 7 8 6 4 11 14 20 60 94 98 99 90 70 58 46 37 35 28 32 28 34 40 34 30 26 23 20 21 19 12 8 8 14 27 32 33 18 9 26 47 50 55 88 98
12 10 9 7 8 8 9 7 4 9 10 13 20 46 75 90 96 94 84 72 56 50 40 34 25 31 40 42 37 31 26 21 23 20 14 10 9 11 24 28 36 28 13 8 28 48 45 66 79
15 14 13 11 9 11 10 10 6 8 9 8 8 22 39 49 90 94 95 91 74 58 49 40 34 32 41 44 38 32 28 26 26 22 16 11 11 10 19 25 36 35 21 10 9 18 38 44 53
16 15 13 11 11 12 11 10 8 8 8 8 8 10 28 46 64 100 98 96 100 86 58 48 44 41 43 49 43 37 33 29 25 23 17 12 14 9 13 21 38 38 27 17 8 8 11 34 48
17 14 12 10 9 8 8 9 9 6 5 6 6 6 18 82 62 94 84 92 98 96 88 59 47 49 50 54 44 42 40 32 26 23 15 16 18 14 13 19 38 38 35 27 16 6 8 12 30
10 8 6 5 4 3 5 2 3 4 8 7 5 5 8 97 93 93 94 87 98 90 88 68 69 60 55 48 41 41 42 40 31 28 18 21 23 16 16 17 37 44 40 41 28 14 7 11 15
7 4 3 4 6 8 28 9 2 2 3 6 6 5 8 88 97 100 99 100 100 90 83 92 76 61 45 39 41 46 47 45 38 31 22 19 19 21 18 22 33 50 46 48 42 24 9 10 17
4 4 4 15 26 45 36 61 10 9 2 4 4 5 14 86 100 98 98 99 100 99 90 75 77 54 46 40 45 54 54 49 42 38 30 24 23 23 18 20 27 44 50 53 52 37 12 8 16
9 23 42 39 56 52 44 100 35 23 4 2 4 6 19 51 100 98 96 82 82 89 91 92 91 70 53 54 53 51 47 45 43 40 34 28 29 23 20 21 28 32 49 58 62 56 13 8 18
44 52 51 49 37 59 65 91 42 13 5 4 7 21 27 25 72 97 86 98 96 97 90 80 75 60 55 54 49 47 41 41 38 38 37 32 26 23 23 19 28 33 49 57 67 71 17 8 10
33 49 89 97 69 76 62 69 44 16 13 18 16 51 75 65 74 57 59 71 69 86 100 80 67 60 56 51 48 45 45 43 42 37 33 34 29 23 20 20 27 34 45 59 61 70 27 8 11
33 67 100 99 66 78 85 45 29 42 45 89 75 76 59 80 83 74 78 79 74 67 81 82 72 64 57 54 58 52 52 46 61 44 30 31 30 27 21 30 43 32 35 49 46 62 39 9 11
46 56 76 96 100 95 92 60 100 67 48 79 63 69 91 100 96 72 95 98 96 81 68 63 60 73 54 51 50 48 47 62 74 47 32 30 32 31 27 52 60 30 33 42 42 61 38 10 10
68 90 98 86 98 100 61 67 99 96 84 54 43 33 67 97 100 99 98 96 94 99 97 88 76 69 51 45 44 45 43 42 45 36 33 33 29 32 38 64 65 37 38 42 46 72 32 10 10
68 54 68 81 62 64 97 88 96 100 99 66 69 27 49 99 93 90 97 98 95 95 96 96 72 51 42 43 43 42 43 41 34 45 34 23 23 38 48 67 56 36 32 31 47 68 23 9 10
Wind_Speed
32 32 32 34 36 35 32 25 19 19 25 23 18 16 23 31 37 40 34 32 30 28 26 20 17 14 14 13 14 14 15 15 18 19 21 23 24 23 22 25 23 20 22 25 39 31 25 26 27
34 34 36 38 39 39 37 27 16 24 26 24 18 23 27 32 36 38 36 35 29 26 27 21 18 16 16 14 15 13 13 15 18 21 24 25 24 22 21 25 21 20 25 24 28 33 29 27 28
32 34 36 36 37 32 30 21 21 29 31 34 16 21 29 35 37 38 36 35 29 29 28 22 19 17 17 16 17 16 16 16 18 20 20 21 22 21 19 23 21 21 24 24 21 29 35 27 23
32 32 35 36 32 27 25 18 23 28 34 40 35 25 33 37 39 41 39 33 29 32 31 24 20 17 17 16 16 17 16 14 14 15 17 19 22 21 18 21 18 20 22 21 18 16 30 22 23
32 33 36 35 31 28 25 17 26 29 36 37 38 27 32 40 41 40 34 29 29 33 33 25 21 17 14 14 12 13 14 13 13 13 16 18 21 21 18 21 16 14 18 13 7 14 14 25 24
35 33 37 35 33 33 29 22 26 33 41 42 43 40 38 38 35 36 32 25 31 33 35 25 21 19 16 14 13 12 13 14 14 13 15 18 20 21 19 20 17 11 12 16 11 9 8 21 25
38 38 38 36 34 32 28 28 25 34 44 46 34 35 46 41 40 39 36 26 31 33 33 29 22 18 17 16 13 13 12 13 14 15 16 18 19 21 19 19 16 13 11 11 11 13 8 11 16
39 41 39 39 35 33 26 30 30 33 40 49 38 39 47 47 40 43 44 35 26 33 34 30 24 19 16 17 15 15 14 13 15 16 17 19 19 21 21 19 16 14 11 10 10 13 16 14 16
40 40 40 40 40 39 32 35 38 39 37 45 57 48 50 53 47 49 49 40 24 28 35 29 27 21 17 16 16 16 17 16 16 17 18 20 20 21 21 21 17 13 13 10 12 12 15 12 15
43 45 43 40 41 41 42 40 39 43 42 42 55 57 51 57 49 52 50 44 33 26 29 33 28 26 21 19 18 17 17 18 18 18 20 20 20 20 20 20 17 12 14 11 11 13 14 15 16
43 45 42 43 44 44 44 45 40 49 47 49 54 58 56 51 52 51 51 46 38 31 35 31 31 29 24 21 21 20 19 20 20 20 21 22 22 20 20 18 17 13 14 12 12 14 16 13 18
43 38 42 44 44 46 46 46 45 45 47 56 58 56 58 54 54 52 54 52 43 37 32 28 31 30 26 23 23 21 21 21 22 21 21 23 22 21 18 18 17 12 13 14 13 15 16 17 18
39 40 41 41 42 42 42 43 47 46 47 59 62 58 59 58 57 57 53 52 48 39 32 28 31 29 29 24 25 21 21 20 23 22 21 22 21 20 18 18 17 11 12 13 12 14 14 17 18
41 41 42 42 40 40 45 47 48 49 46 51 63 65 60 63 62 58 57 53 47 37 31 30 29 29 31 27 26 25 22 20 21 22 21 21 21 19 17 18 17 10 11 12 13 14 13 14 18
47 49 46 42 42 46 41 55 53 50 48 50 62 69 64 63 62 61 57 52 50 41 39 36 32 30 31 29 28 27 26 22 20 22 21 21 21 18 16 16 18 13 10 11 12 14 14 13 20
48 50 53 46 45 44 47 54 49 47 49 53 55 67 71 62 65 64 60 54 51 41 43 40 36 31 30 30 32 31 28 25 21 21 22 21 20 20 17 16 17 16 11 13 12 13 14 13 20
53 54 54 52 49 51 51 55 51 46 48 51 50 62 68 75 68 65 60 58 54 48 44 42 41 33 29 30 34 34 29 26 23 22 24 23 20 21 19 15 16 17 14 12 14 14 15 15 15
55 57 57 59 53 63 58 59 56 54 49 48 50 48 64 67 74 72 64 61 57 55 47 43 43 36 31 31 37 36 31 28 25 25 27 24 20 21 19 15 14 17 16 15 15 17 18 17 19
56 60 62 57 58 67 66 65 60 59 57 53 48 47 46 59 58 72 69 59 60 59 48 47 43 41 33 34 35 35 32 31 29 28 29 27 22 22 20 18 14 16 17 16 16 18 20 20 19
55 61 61 61 60 68 70 72 69 61 60 51 50 48 42 48 53 62 62 58 56 52 52 50 46 43 35 35 35 37 35 31 33 31 30 29 21 24 21 20 16 17 17 17 17 19 21 21 22
53 62 67 73 72 73 73 80 75 67 65 56 48 42 39 47 50 53 61 58 54 57 55 48 45 40 39 38 36 38 37 34 33 30 31 28 26 26 22 21 19 18 19 18 19 20 22 23 24
59 65 72 70 64 64 49 75 74 70 65 60 49 39 38 45 50 52 53 56 53 52 48 52 46 43 39 37 36 37 35 35 34 33 34 32 32 28 24 23 21 19 19 20 21 22 24 24 23
64 65 57 49 44 44 42 48 56 50 59 55 47 40 39 43 52 56 57 50 46 46 51 47 43 40 37 37 37 36 36 37 37 37 36 35 33 31 26 25 23 21 20 19 23 24 25 25 25
53 44 39 38 42 44 37 43 45 34 41 45 41 36 33 38 51 59 60 58 54 49 49 48 45 42 43 40 38 37 36 36 38 39 37 37 35 34 30 28 24 24 22 20 23 25 25 26 26
30 36 43 35 41 46 43 45 40 15 27 35 34 27 37 40 41 46 52 52 50 50 46 46 47 44 42 39 39 38 34 36 39 39 38 39 38 35 33 31 26 25 25 23 23 26 27 28 27
24 36 42 41 42 48 41 43 36 10 19 22 28 27 37 37 41 46 47 49 51 49 46 46 44 39 36 37 39 38 37 39 39 38 38 39 39 37 35 32 28 27 25 25 25 26 28 28 27
24 32 32 33 33 45 37 36 8 8 27 19 21 35 33 24 34 41 41 45 48 49 45 45 40 36 38 40 40 40 39 39 37 38 39 38 40 39 35 34 32 29 27 29 28 27 28 29 29
21 28 28 25 29 41 38 20 11 3 15 15 31 44 36 28 29 27 29 33 42 38 35 37 39 41 41 42 42 41 40 40 41 41 40 40 41 38 36 36 34 30 28 29 29 29 30 31 30
22 18 23 26 27 30 36 11 2 10 11 24 40 33 17 24 25 25 24 30 32 32 38 38 37 39 41 42 42 41 41 40 41 41 41 41 41 38 37 36 37 31 30 31 30 31 31 31 31
15 29 29 30 27 27 30 14 8 10 10 31 32 28 26 24 26 24 28 31 29 30 30 37 34 34 36 38 39 38 38 38 39 40 41 40 37 37 37 37 37 34 32 30 31 33 32 32 32
Wind_Direction
269 270 270 270 273 274 279 285 277 242 238 239 233 237 255 257 266 271 278 279 286 288 290 290 283 272 265 269 268 271 283 297 302 303 300 299 306 310 317 311 313 305 307 305 289 237 229 223 224
269 269 268 267 269 273 280 282 238 218 222 227 238 230 254 263 264 270 276 276 285 289 286 289 289 275 264 265 269 268 275 284 291 295 296 301 303 309 319 312 315 307 318 322 294 237 221 217 217
273 272 269 269 268 272 275 275 235 229 229 230 228 261 255 262 266 269 272 274 284 286 284 287 288 282 269 264 266 269 270 276 284 290 301 304 306 317 321 314 314 320 324 314 288 250 219 212 219
280 278 276 273 274 274 275 263 237 236 240 243 236 241 245 251 254 259 269 268 277 276 281 281 285 282 273 264 266 271 273 274 280 294 303 308 310 318 324 312 318 326 325 316 264 266 249 205 223
276 280 279 279 279 275 270 254 232 235 244 243 238 236 248 245 253 261 261 260 262 267 275 273 275 275 274 276 277 277 274 274 283 295 305 309 315 322 328 319 319 326 330 330 316 281 284 230 217
266 270 274 279 277 275 273 263 238 228 240 248 251 252 250 249 247 259 250 254 259 259 266 266 267 270 271 274 278 279 278 281 286 299 306 313 316 322 327 320 318 317 304 309 302 275 273 257 232
266 266 268 269 272 273 272 265 251 237 239 244 256 266 263 253 251 248 257 250 253 257 264 266 264 266 269 269 275 278 280 289 296 300 307 310 315 320 325 321 322 311 311 310 298 262 250 248 248
264 264 268 265 267 267 262 250 240 243 237 240 237 250 261 260 250 252 261 258 244 254 261 261 265 267 271 278 282 285 288 295 300 302 307 309 313 317 323 324 326 312 312 309 286 274 271 252 242
267 268 269 267 264 260 249 250 236 241 242 241 241 242 251 260 256 255 260 257 249 243 257 260 263 268 275 284 284 286 290 293 298 302 306 310 313 315 319 324 323 313 303 303 291 287 272 258 246
271 270 268 268 266 264 258 249 232 234 243 239 239 244 245 253 259 262 259 257 253 250 255 260 265 269 272 277 285 288 289 292 297 300 303 308 309 311 312 320 317 310 294 301 286 290 275 245 232
273 273 273 272 269 265 261 256 245 230 241 243 236 241 244 248 252 254 258 258 258 247 247 259 268 270 273 274 280 287 289 292 298 298 301 306 309 312 311 320 312 307 291 289 281 280 274 251 235
274 274 273 272 271 269 267 263 253 246 241 239 240 239 243 243 251 250 255 259 258 254 252 256 263 267 271 272 274 277 285 290 294 299 298 302 306 310 314 319 314 308 292 288 270 272 279 263 243
280 275 276 278 277 275 272 267 267 257 251 238 238 238 241 242 248 255 250 253 257 260 257 253 254 263 267 268 272 271 275 284 289 293 293 297 300 308 312 313 313 312 292 283 274 279 276 261 232
284 282 281 281 279 279 277 271 266 265 252 248 243 239 238 244 248 248 254 255 252 250 250 244 248 256 260 265 267 270 270 274 282 287 290 288 295 303 307 309 312 308 295 284 283 275 280 268 234
287 284 283 281 279 279 274 272 275 273 254 247 238 239 238 238 239 251 254 255 252 243 242 241 240 244 254 259 261 265 267 271 273 280 284 283 289 295 299 306 305 304 290 276 277 277 282 276 244
284 283 280 280 284 283 275 277 274 272 266 253 243 242 232 231 235 243 245 252 255 249 244 242 240 239 241 250 255 258 261 266 268 272 278 277 282 288 291 299 304 299 293 283 279 279 268 281 263
287 286 283 277 277 275 274 274 272 266 262 264 256 243 246 236 230 233 236 246 248 247 243 244 242 240 243 241 250 255 255 259 262 266 270 270 273 280 287 293 300 294 295 288 273 268 269 263 275
283 281 278 277 270 273 268 269 267 270 265 264 264 264 248 249 238 231 231 237 245 246 241 242 247 243 240 243 246 250 252 254 254 256 261 264 263 271 281 289 296 291 289 288 279 272 265 261 262
285 281 278 275 274 271 268 262 260 266 269 265 266 264 266 250 245 235 236 228 235 244 242 241 243 246 239 244 244 243 243 245 250 250 255 259 257 263 271 279 284 283 284 286 282 274 267 262 255
283 283 284 283 281 277 275 271 264 259 264 268 265 264 271 247 240 238 231 234 229 238 243 243 244 244 242 241 235 234 237 241 246 248 249 256 255 258 264 271 276 277 278 282 286 279 273 267 261
292 294 294 293 290 281 276 270 265 259 253 257 258 263 267 237 234 236 229 227 230 232 235 238 237 236 238 233 224 231 239 242 245 247 249 254 249 250 256 260 270 271 277 279 284 288 276 268 260
304 301 298 299 294 292 288 279 265 255 245 246 252 251 251 236 227 221 224 226 226 231 231 232 233 232 228 225 221 228 235 238 242 245 247 249 249 247 251 252 260 263 270 276 280 286 283 267 264
307 303 303 303 307 299 304 296 283 266 242 235 238 235 239 231 219 213 209 208 210 227 230 228 222 227 227 225 227 230 234 235 239 243 245 248 249 252 250 251 252 258 263 268 276 285 286 272 267
304 311 314 313 311 309 313 301 296 279 235 225 222 225 236 232 223 217 215 214 207 212 229 231 219 224 230 230 229 232 232 234 239 243 247 248 250 253 251 251 251 258 261 265 275 283 284 276 265
299 302 324 320 315 314 326 301 315 273 214 209 223 224 224 234 219 223 228 218 217 216 223 225 223 227 228 230 229 233 234 235 239 242 244 247 250 252 253 253 252 255 258 265 273 281 283 279 268
307 317 324 313 313 319 323 319 318 190 181 202 215 209 208 210 206 214 213 217 223 217 217 226 227 228 229 231 232 234 234 235 238 240 243 244 249 252 252 256 259 257 257 260 272 280 279 278 274
314 318 322 316 310 330 336 334 328 191 165 175 178 198 203 198 219 209 211 213 219 225 225 230 231 234 231 233 234 233 236 241 244 245 244 243 247 250 251 255 259 258 258 260 268 278 277 275 272
314 309 314 318 322 335 338 347 22 102 178 211 190 203 200 193 197 199 207 213 215 216 225 229 228 224 225 228 231 233 238 240 243 246 246 244 245 248 248 252 258 262 259 263 268 273 272 270 271
315 313 323 305 324 322 326 325 216 169 158 182 192 208 241 167 200 205 211 208 214 218 219 223 225 229 228 228 232 235 238 242 242 246 248 246 245 246 245 251 257 261 258 261 267 273 272 271 271
320 322 326 321 318 306 305 281 278 168 142 188 198 198 216 214 203 212 219 226 235 216 226 220 222 231 232 232 232 233 235 236 239 240 245 246 245 244 246 250 256 259 258 260 266 270 271 269 275